SCP
0 0 0 0 0 0 0 1 0 0 0 1 1 1 1 0 0 0 0 0 0 0 0 0 0 0 0 0 0 0 0 0 0 0 0 0 0 0 0 0 0 0 0 0
0 0 0 0 0 0 0 1 1 0 1 1 1 1 1 0 0 0 0 0 0 0 0 0 0 0 0 0 0 0 0 0 0 0 0 0 0 0 0 0 0 0 0 0
0 0 0 0 0 0 1 1 1 1 1 1 1 1 0 0 0 0 0 0 0 0 0 0 0 0 0 0 0 0 0 0 0 0 0 0 0 0 0 0 0 0 0 0
0 0 0 0 0 0 0 1 1 1 1 1 1 1 0 0 0 0 0 0 0 0 0 0 0 0 0 0 0 0 0 0 0 0 0 0 0 0 0 0 0 0 0 0
0 0 0 0 0 0 0 1 1 1 1 1 1 0 0 0 0 0 0 0 0 0 0 0 0 0 0 0 0 0 0 0 0 0 0 0 0 0 0 0 0 0 0 0
0 0 0 0 0 0 0 1 1 1 1 1 1 0 0 0 0 0 0 0 0 0 0 0 0 0 0 0 0 0 0 0 0 0 0 0 0 0 0 0 0 0 0 0
0 0 0 0 0 0 0 0 0 0 1 1 1 0 0 0 0 0 0 0 0 0 0 0 0 0 0 0 0 0 0 0 0 0 0 0 0 0 0 0 0 0 0 0
0 0 0 0 0 0 0 0 0 0 0 0 0 0 0 0 0 0 0 0 0 0 0 0 0 0 0 0 0 0 0 0 0 0 0 0 0 0 0 0 0 0 0 0
0 0 0 0 0 0 0 0 0 0 0 0 0 0 0 0 0 0 0 0 0 0 0 0 0 0 0 0 0 0 0 0 0 0 0 0 0 0 0 0 0 0 0 0
0 0 0 0 0 0 0 0 0 0 0 0 0 0 0 0 0 0 0 0 0 0 0 0 0 0 0 0 0 0 0 0 0 0 0 0 0 0 0 0 0 0 0 0
0 0 0 0 0 0 0 0 0 0 0 0 0 0 0 0 0 0 0 0 0 0 0 0 0 0 0 0 0 0 0 0 0 0 0 0 0 0 0 0 0 0 0 0
0 0 0 0 0 0 0 0 0 0 0 0 0 0 0 0 0 0 0 0 0 0 0 0 0 0 0 0 0 0 0 0 0 0 0 0 0 0 0 0 0 0 0 0
0 0 0 0 0 0 0 0 0 0 0 0 0 0 0 0 0 0 0 0 0 0 0 0 0 0 0 0 0 0 0 0 0 0 0 0 0 0 0 0 0 0 0 0
0 0 0 0 0 0 0 0 0 0 0 0 0 0 0 0 0 0 0 0 0 0 0 0 0 0 0 0 0 0 0 0 0 0 0 0 0 0 0 0 0 0 0 0
0 0 0 0 0 0 0 0 0 0 0 0 0 0 0 0 0 0 0 0 0 0 0 0 0 0 0 0 0 0 0 0 0 0 0 0 0 0 0 0 0 0 0 0
0 0 0 0 0 0 0 0 0 0 0 0 0 0 0 0 0 0 0 0 0 0 0 0 0 0 0 0 0 0 0 0 0 0 0 0 0 0 0 0 0 0 0 0
0 0 0 0 0 0 0 0 0 0 0 0 0 0 0 0 0 0 0 0 0 0 0 0 0 0 0 0 0 0 0 0 0 0 0 0 0 0 0 0 0 0 0 0
0 0 0 0 0 0 0 0 0 0 0 0 0 0 0 0 0 0 0 0 0 0 0 0 0 0 0 0 0 0 0 0 0 0 0 0 0 0 0 0 0 0 0 0
0 0 0 0 0 0 0 0 0 0 0 0 0 0 0 0 0 0 0 0 0 0 0 0 0 0 0 0 0 0 0 0 0 0 0 0 0 0 0 0 0 0 0 0
0 0 0 0 0 0 0 0 0 0 0 0 0 0 0 0 0 0 0 0 0 0 0 0 0 0 0 0 0 0 0 0 0 0 0 0 0 0 0 0 0 0 0 0
0 0 0 0 0 0 0 0 0 0 0 0 0 0 0 0 0 0 0 0 0 0 0 0 0 0 0 0 0 0 0 0 0 0 0 0 0 0 0 0 0 0 0 0
0 0 0 0 0 0 0 0 0 0 0 0 0 0 0 0 0 0 0 0 0 0 0 0 0 0 0 0 0 0 0 0 0 0 0 0 0 0 0 0 0 0 0 0
0 0 0 0 0 0 0 0 0 0 0 0 0 0 0 0 0 0 0 0 0 0 0 -0 0 0 0 0 0 0 0 0 0 0 0 0 0 0 0 0 0 0 0 0
0 0 0 0 0 0 0 0 0 0 0 0 0 0 0 0 0 0 0 0 0 0 0 -0 0 0 0 0 0 0 0 0 0 0 0 0 0 0 0 0 0 0 0 0
0 0 0 0 0 0 0 0 0 0 0 0 0 0 0 0 0 0 0 0 0 0 0 -0 0 0 0 0 0 0 0 0 0 0 0 0 0 0 0 0 0 0 0 0
0 0 0 0 0 0 0 0 0 0 0 0 0 0 -0 0 0 0 0 0 0 0 0 0 -0 -0 0 0 0 0 0 0 0 0 0 0 0 0 0 0 0 0 0 0
0 0 0 0 0 0 0 0 0 0 0 0 0 -0 -0 0 0 0 0 0 0 0 0 0 -0 -0 -0 -0 0 0 0 0 0 0 0 0 0 0 0 0 0 0 0 0
Wind_Speed
3 3 3 3 3 1 3 6 6 7 9 11 13 14 13 12 11 11 9 9 8 6 5 4 4 3 4 4 3 3 4 4 4 3 4 5 5 5 6 6 6 6 6 7
2 2 1 2 3 0 2 4 6 7 4 6 9 9 10 11 12 11 10 9 8 8 7 5 5 4 4 4 3 3 4 4 4 4 5 5 5 5 5 6 6 6 6 6
2 3 3 3 3 1 3 3 7 7 7 12 11 12 13 12 12 11 10 9 9 8 7 6 5 5 5 3 3 3 3 3 4 4 4 4 4 5 5 5 5 5 5 5
0 3 0 4 2 5 7 3 3 7 11 13 11 8 6 8 10 10 10 9 9 8 7 6 5 4 4 4 3 3 3 3 3 3 4 4 4 4 4 3 4 4 4 4
2 1 2 3 1 2 5 2 4 11 12 10 11 8 4 4 7 8 8 9 8 8 7 6 6 5 4 3 3 3 3 3 3 3 3 4 4 3 3 3 4 3 3 4
2 2 4 5 2 4 8 1 3 10 14 13 10 6 5 6 8 9 9 8 8 8 7 6 5 5 5 4 3 3 2 2 3 3 3 4 3 3 2 3 3 4 4 4
3 2 4 4 2 3 2 7 7 9 13 11 5 5 8 10 9 9 9 9 9 8 7 5 5 5 5 4 3 2 3 3 3 3 3 3 3 2 3 3 4 4 4 3
3 2 5 3 1 3 5 4 8 8 9 8 9 11 11 11 11 11 10 9 8 7 6 5 5 5 5 3 2 3 3 3 3 2 2 3 3 3 3 3 4 3 3 3
4 4 4 1 3 4 7 9 7 8 10 13 13 12 12 10 10 9 9 8 7 8 7 5 5 5 5 3 3 3 3 3 2 2 2 3 3 3 2 3 3 2 2 2
3 1 2 5 6 6 9 10 10 12 13 13 13 13 12 10 9 8 7 7 6 7 7 5 4 4 4 3 4 4 3 2 2 3 3 3 2 2 2 2 2 2 2 2
3 3 5 4 6 10 11 13 14 12 11 12 14 13 11 10 9 8 7 6 6 7 6 5 4 4 4 3 4 4 3 2 3 3 3 3 3 2 2 1 3 4 3 3
7 9 7 6 7 12 14 13 14 14 11 10 11 12 10 9 8 7 7 6 7 6 6 5 5 4 3 3 4 4 3 2 2 2 2 2 3 2 4 2 3 4 5 4
6 7 8 10 10 11 12 13 13 13 13 12 10 10 10 8 7 7 7 7 7 6 6 5 5 4 3 3 4 4 3 2 2 2 2 2 2 2 1 3 3 2 2 3
13 13 11 9 10 12 14 13 13 12 11 11 10 10 10 8 8 8 7 7 7 6 5 5 5 4 3 3 3 3 3 3 3 2 3 3 3 2 2 2 0 2 2 2
8 9 12 12 13 14 14 14 14 12 11 10 10 10 10 9 9 8 7 7 6 6 5 5 5 4 3 3 3 3 2 2 2 2 2 3 3 2 2 2 2 2 1 2
10 13 16 16 16 15 15 15 14 13 12 10 10 10 9 9 8 7 7 7 7 6 5 5 5 4 3 3 3 2 2 3 2 1 1 2 2 2 3 3 3 3 3 3
14 14 16 17 16 15 14 13 14 13 12 11 11 10 10 9 8 7 6 7 7 6 5 5 5 4 3 3 3 2 1 1 2 1 1 2 2 3 3 3 3 3 4 4
13 14 16 18 17 15 15 14 14 13 13 12 12 11 10 10 9 7 7 7 6 5 4 5 5 4 3 3 3 2 2 2 1 2 2 2 2 2 2 3 4 4 3 2
11 13 14 15 15 14 14 13 13 13 13 12 12 11 10 9 8 7 7 7 7 5 5 5 6 4 3 4 3 2 2 2 2 2 2 3 2 1 2 3 3 4 3 3
11 13 14 14 14 14 13 13 13 13 12 12 12 11 10 9 8 8 7 6 6 5 5 5 4 3 3 3 3 2 2 2 3 3 3 3 3 3 3 3 4 4 4 4
14 14 14 14 14 14 14 15 14 14 13 13 13 12 11 9 9 8 7 5 5 6 6 7 4 3 3 3 3 2 3 3 3 3 4 4 4 3 3 3 4 4 4 4
13 12 14 14 13 12 13 13 14 14 13 13 12 12 10 9 9 7 7 6 6 8 6 4 4 5 5 4 2 3 3 3 3 3 3 4 4 4 4 4 4 4 4 4
11 12 13 14 14 12 12 13 14 14 14 13 13 12 11 9 8 8 7 6 6 9 7 5 7 9 8 4 2 3 3 3 3 3 4 4 4 4 4 4 4 4 4 4
10 12 12 12 12 12 12 12 12 11 12 11 11 12 10 8 6 6 6 9 11 11 7 7 11 11 8 3 3 3 3 3 3 3 3 3 4 4 4 4 4 4 4 5
11 12 12 14 13 11 11 11 11 10 11 9 10 11 9 8 7 7 7 8 11 11 6 8 12 11 6 4 4 4 3 4 4 3 4 3 4 4 4 4 5 4 4 5
11 11 11 11 10 9 9 9 8 8 9 8 8 8 7 6 7 7 7 8 11 11 8 6 6 7 5 5 5 5 4 4 4 4 4 4 5 5 4 5 6 5 5 5
10 8 7 7 6 8 9 9 9 9 9 9 8 8 8 7 7 7 8 7 8 8 7 6 6 6 6 6 6 6 5 5 5 5 5 5 4 4 5 7 5 5 5 5
Wind_Direction
213 228 213 237 267 218 160 175 173 185 173 181 171 164 159 153 147 145 146 145 143 141 136 129 116 105 97 92 82 83 81 76 69 59 60 64 66 62 64 66 69 64 63 57
336 303 344 23 5 13 126 123 128 133 163 162 143 141 150 156 156 156 158 155 149 144 143 141 134 123 109 98 93 87 83 78 71 65 61 63 63 66 66 63 62 61 59 59
302 310 39 358 303 98 100 122 147 171 175 144 144 157 164 164 163 163 161 156 153 152 149 144 138 130 124 118 105 97 87 77 73 74 66 60 68 68 67 64 67 66 62 66
304 23 160 252 302 115 108 78 124 125 141 152 149 145 146 154 159 161 159 153 149 146 140 138 135 135 133 123 110 101 93 86 84 82 74 70 68 66 65 66 72 72 70 70
113 140 243 284 298 141 117 69 125 130 135 128 120 102 101 141 148 152 149 144 142 139 136 136 138 139 124 109 106 108 102 94 96 95 87 83 77 67 68 73 70 71 78 72
134 160 217 239 254 123 96 100 174 143 143 143 135 145 174 152 131 127 128 130 130 128 126 129 136 130 122 121 115 115 117 112 105 100 94 93 87 74 67 81 84 82 75 67
166 195 250 249 242 120 151 217 170 153 150 150 156 159 141 131 124 126 126 127 127 128 130 138 137 126 123 125 132 135 117 102 89 85 102 99 81 72 78 79 76 73 72 58
141 170 246 285 112 166 192 132 134 137 139 126 117 117 119 123 125 126 125 127 129 129 131 136 133 124 126 141 155 126 107 95 87 78 99 99 85 74 81 92 83 73 74 56
162 207 252 2 115 119 121 118 121 125 128 125 123 126 125 125 127 126 128 130 128 131 131 132 134 134 139 157 138 119 102 100 92 74 76 91 100 93 79 89 100 96 94 80
85 79 85 85 89 92 108 114 120 127 129 129 128 130 128 129 128 127 127 130 128 127 127 131 137 140 149 147 126 122 119 115 104 96 76 64 71 91 103 110 117 115 110 104
103 142 101 86 113 117 109 112 116 120 124 129 130 132 131 132 132 131 129 128 129 132 134 141 143 143 150 141 123 118 113 110 102 97 105 86 70 64 103 134 179 157 159 156
193 187 153 162 148 130 124 127 129 126 121 126 130 131 130 132 132 132 133 131 130 131 135 142 145 148 152 144 134 126 113 116 128 123 125 118 108 56 31 57 87 129 150 153
159 144 132 136 137 129 129 131 131 129 132 131 129 130 130 131 134 132 133 138 143 146 148 148 146 151 162 156 141 139 147 155 142 142 149 155 151 141 97 14 31 56 126 154
124 116 117 132 136 132 129 127 125 123 127 130 131 131 130 128 133 137 145 151 149 148 147 150 154 169 179 158 144 148 160 176 166 174 175 179 182 181 173 162 189 312 302 248
131 132 136 131 128 129 130 130 130 131 132 131 134 136 137 139 145 151 155 151 143 144 150 153 159 179 178 153 147 154 158 173 181 190 193 191 191 187 191 190 200 233 279 294
125 123 130 135 139 139 140 141 142 145 145 142 143 146 146 146 147 149 151 149 146 154 161 159 170 189 172 149 142 148 179 202 193 191 201 188 189 191 200 203 211 219 228 236
136 143 146 149 151 151 151 152 151 151 151 150 151 149 145 142 142 147 154 157 156 162 165 166 179 189 173 162 163 181 207 243 243 211 218 204 194 199 200 199 205 214 228 225
158 160 160 158 157 155 154 153 153 152 154 154 150 147 149 151 155 158 157 152 146 153 170 175 178 180 181 182 182 191 200 220 221 215 224 225 210 201 189 195 206 211 227 232
147 154 156 157 156 155 155 155 156 155 154 154 153 154 155 156 157 156 152 149 152 167 194 190 180 175 188 207 191 183 206 232 240 238 222 224 218 212 200 199 205 210 208 204
150 152 156 157 155 155 155 155 153 154 156 155 153 153 156 161 160 158 156 164 182 188 190 186 179 185 202 223 217 210 227 235 232 233 224 220 221 227 219 210 205 208 213 212
158 157 155 156 157 157 157 155 156 158 159 159 160 163 166 167 166 162 161 181 209 193 183 188 187 194 208 227 231 231 237 238 238 234 226 220 220 225 225 223 216 211 212 215
159 156 156 155 154 157 158 157 158 159 160 163 165 165 165 169 172 172 180 188 196 189 182 190 200 209 217 225 227 236 241 245 240 234 228 219 215 221 224 222 221 220 217 214
156 155 155 157 158 155 156 159 161 162 164 167 168 169 172 175 175 176 192 201 187 189 187 198 210 218 220 220 233 243 251 255 247 233 224 219 216 214 216 220 220 217 213 215
151 153 154 153 149 151 158 166 164 165 167 168 171 172 170 172 183 192 187 187 189 189 195 206 210 215 215 215 233 245 255 256 246 238 232 229 224 217 215 215 217 219 217 217
151 150 150 152 158 165 164 162 160 162 164 169 173 176 177 177 181 190 185 186 190 189 198 207 210 215 212 215 229 241 249 249 246 237 230 227 226 222 220 216 214 215 217 217
153 156 161 166 165 163 162 163 166 169 170 171 178 182 182 182 181 180 182 187 188 191 195 201 206 210 213 220 231 238 242 251 254 246 236 231 229 226 225 221 219 217 219 221
149 149 148 150 158 163 165 167 170 175 176 176 179 184 184 182 180 183 183 184 186 193 197 199 201 206 213 221 229 236 240 242 243 243 239 232 228 228 227 224 221 220 218 219